Helicity
121 132 160 165 144 109 54 72 94 61 68 57 50 67 79 73 59 42 46 47 49 33 31 26 23 24 14 6 -4 8 14 25 43 75 98 85 84 98 99 93 99 113 124 82
111 121 152 175 150 100 63 78 76 64 56 62 71 71 86 86 60 67 51 47 45 33 34 38 45 32 22 3 4 13 32 43 50 77 89 100 115 116 137 126 147 98 119 83
109 112 139 160 144 87 77 84 106 72 48 59 47 68 73 83 95 66 69 59 49 58 63 56 46 35 21 12 25 30 31 62 68 75 85 141 136 93 98 99 162 106 101 59
107 118 127 139 125 83 74 111 94 103 68 65 61 88 69 67 72 61 68 65 42 52 59 57 39 36 41 42 48 55 55 80 95 77 66 85 126 79 71 101 99 151 50 48
105 125 143 143 118 71 72 90 82 90 100 95 72 97 64 53 75 72 70 64 81 66 55 35 38 46 34 59 78 99 103 117 118 109 90 90 117 99 85 56 24 42 47 40
103 127 148 161 129 75 63 62 66 96 109 93 80 77 75 66 83 112 95 73 83 83 68 71 74 65 78 92 103 118 117 143 155 162 133 80 100 47 97 100 56 70 76 75
104 125 152 151 128 90 63 63 66 83 99 94 91 75 92 75 92 75 84 80 68 63 70 71 68 90 92 83 109 135 166 206 210 221 139 131 185 90 72 22 4 41 48 73
103 131 147 145 132 85 66 62 73 74 100 100 91 88 91 102 99 103 88 98 79 55 52 68 84 82 97 100 138 133 149 227 255 238 194 115 47 118 78 77 24 54 86 120
98 131 148 148 135 96 84 87 80 76 77 75 95 94 60 83 92 98 101 97 82 69 83 92 108 104 86 91 122 173 211 200 223 225 193 172 139 117 58 45 44 174 129 102
95 117 141 149 156 128 78 88 91 80 92 76 92 100 81 96 108 99 101 90 96 99 112 125 120 101 100 100 136 169 232 239 210 161 187 140 88 79 131 117 186 129 89 121
96 106 128 150 160 135 96 93 109 91 91 74 81 86 89 101 95 104 94 117 109 138 145 133 109 98 82 117 163 176 196 228 191 176 170 66 120 109 119 108 103 102 113 196
105 118 128 144 159 144 109 101 115 127 107 89 96 103 109 115 106 120 108 136 104 114 159 121 118 118 133 152 191 203 197 156 179 180 167 88 70 91 89 115 109 193 194 148
108 110 129 146 158 160 114 108 118 118 107 109 98 96 92 106 120 125 135 142 147 136 145 129 146 160 168 210 194 157 174 142 195 143 112 47 95 69 212 179 158 164 67 86
104 97 107 133 156 162 128 122 126 131 112 109 100 93 108 119 98 99 123 126 169 170 157 182 195 198 156 239 216 227 142 119 116 103 77 41 99 171 210 200 161 74 33 -17
97 94 92 104 132 145 139 135 144 141 131 77 87 110 129 147 123 95 105 118 161 168 198 223 204 221 246 282 296 265 124 94 151 172 152 154 218 265 197 140 74 75 53 89
101 103 96 95 103 124 139 126 113 141 144 125 105 133 150 158 135 110 117 129 152 181 191 217 235 243 209 198 254 174 129 115 159 174 205 230 246 159 62 87 65 91 37 35
101 96 99 102 119 147 159 151 123 142 154 141 126 109 159 190 184 189 166 171 176 184 216 264 253 223 203 295 272 197 265 241 198 198 186 178 86 11 50 66 51 55 49 74
101 98 115 142 168 140 141 171 148 142 146 152 164 166 164 118 143 148 156 160 173 200 245 292 261 183 231 277 285 260 262 217 240 195 166 90 34 46 62 66 71 77 91 85
144 160 157 177 189 185 187 144 162 160 147 138 175 195 131 155 193 175 153 147 168 186 262 251 200 255 229 252 271 271 182 151 132 149 123 114 90 70 76 86 78 70 56 46
261 320 230 212 239 199 217 193 181 187 191 245 278 282 239 168 189 184 125 133 159 213 241 214 275 320 295 279 276 230 211 181 126 112 134 114 93 95 76 42 31 65 63 78
352 326 345 319 297 355 246 236 240 247 344 322 356 324 301 308 248 247 162 183 214 254 266 274 304 283 207 239 218 207 150 102 116 117 88 94 91 72 56 62 78 85 89 89
314 377 437 388 328 292 229 283 280 301 375 332 261 331 332 312 291 286 234 289 300 349 262 289 320 242 221 213 171 117 97 121 110 91 97 89 65 66 89 89 90 102 96 98
521 405 384 290 310 344 339 367 489 484 270 257 302 350 302 282 275 355 323 315 339 231 273 302 258 165 128 119 115 113 110 110 92 85 81 78 82 104 110 109 104 99 85 85
281 383 452 381 261 351 379 408 414 333 320 338 363 401 338 196 223 203 264 248 218 283 327 205 161 92 68 83 94 93 91 106 85 85 83 104 113 108 118 113 98 94 91 81
264 320 352 367 292 212 258 256 256 219 149 199 250 235 171 210 201 188 210 215 249 157 136 139 90 70 92 110 98 76 79 93 96 91 99 108 108 112 92 87 89 90 93 106
96 169 229 172 273 259 145 117 124 81 81 89 95 138 134 156 146 140 129 174 132 147 132 104 102 101 108 97 84 69 81 93 89 87 91 96 110 106 74 81 90 74 76 96
84 89 74 38 33 26 25 34 34 42 66 90 75 70 102 105 99 100 107 130 151 116 99 109 99 86 73 68 70 85 91 83 89 95 97 96 92 104 92 80 55 70 84 97
Wind_Speed
25 23 22 22 24 24 24 26 26 24 22 11 18 20 20 19 16 20 22 23 22 19 23 26 28 27 28 30 33 35 40 34 37 39 36 38 36 37 37 41 40 38 46 53
26 25 24 23 24 26 25 25 20 22 23 20 20 18 20 20 19 26 26 24 23 20 22 25 25 26 27 30 32 36 37 37 43 41 38 35 37 35 38 43 43 36 38 46
28 26 25 25 24 26 25 26 24 22 23 25 11 10 21 22 23 23 20 17 19 21 23 26 23 24 24 27 30 34 34 37 38 43 44 43 42 41 39 29 40 40 32 50
29 28 27 26 26 27 28 29 29 27 24 23 12 20 20 9 17 21 18 18 18 18 21 22 22 23 23 26 27 31 35 39 37 37 38 36 38 42 39 32 31 38 40 51
30 29 29 29 28 27 27 29 27 26 23 17 8 23 14 8 14 15 16 13 17 19 19 22 19 22 22 25 26 31 36 43 47 50 48 48 49 46 38 34 35 37 44 52
31 31 30 30 29 29 28 27 24 26 25 20 18 19 11 9 10 21 19 14 17 20 22 25 28 28 29 28 29 32 38 40 49 56 62 65 59 51 38 39 43 44 54 57
32 31 30 30 29 28 27 29 27 25 22 22 20 12 15 5 19 12 12 16 18 22 22 26 29 32 32 28 31 30 37 43 50 60 63 66 50 45 41 46 44 46 48 55
33 32 30 29 27 28 28 28 30 26 22 21 16 11 9 11 15 14 14 23 23 18 23 30 33 33 35 34 36 34 31 40 53 59 60 59 54 44 43 46 51 47 45 49
33 32 30 29 28 25 23 27 30 28 20 29 21 18 14 15 15 16 21 22 21 22 27 29 32 35 38 38 39 39 39 40 48 54 65 68 54 47 42 38 58 42 59 66
34 33 31 30 28 26 28 28 30 30 28 27 25 27 20 21 20 19 19 16 21 27 25 29 31 35 38 44 48 48 50 50 52 49 56 52 47 40 38 55 60 61 65 70
34 33 32 31 31 30 31 29 30 32 31 27 28 26 25 23 21 21 18 20 26 25 25 28 32 35 37 44 43 47 51 54 53 48 57 56 36 41 59 57 60 63 71 67
37 35 34 32 31 31 32 32 30 29 29 31 29 29 29 30 26 24 17 30 25 20 26 27 32 39 42 46 58 42 55 40 45 41 46 44 47 47 54 60 67 65 60 61
38 36 35 34 32 31 31 29 32 30 31 32 31 31 31 31 29 28 28 30 27 28 32 31 36 44 41 53 53 53 48 41 45 56 48 48 56 63 57 60 65 57 57 57
38 36 35 34 33 32 31 32 31 30 30 38 38 34 32 35 33 31 32 26 26 28 32 37 41 48 41 55 55 52 46 49 56 57 58 56 48 55 57 57 56 52 54 60
39 38 35 33 32 30 28 31 33 32 36 36 35 35 35 36 34 30 29 24 30 34 39 42 48 49 52 53 55 56 44 51 52 58 61 61 62 56 50 53 52 56 62 66
41 40 37 33 32 32 36 43 39 35 34 39 46 40 40 39 35 30 29 29 34 37 41 46 47 47 49 57 60 54 53 50 50 62 60 57 49 49 45 51 56 60 65 68
42 39 36 35 32 37 41 43 37 31 33 40 46 48 41 38 36 38 38 37 40 42 46 52 55 50 46 60 62 54 50 49 53 49 46 52 48 52 48 54 59 63 69 72
42 38 38 35 30 31 42 36 28 29 31 38 46 47 42 34 36 38 38 40 43 46 49 48 48 43 42 57 49 50 45 44 46 48 50 46 43 47 55 59 65 72 77 81
42 31 26 37 44 44 40 30 31 35 39 46 46 51 54 33 37 37 40 41 50 46 49 47 43 47 50 48 50 50 41 46 43 44 46 48 52 56 61 67 72 78 84 87
32 36 43 51 43 25 23 39 41 44 48 47 54 42 47 38 36 41 44 46 47 52 47 45 51 58 48 44 42 38 38 36 38 48 52 56 61 66 69 72 76 80 85 87
46 44 42 37 23 35 41 47 47 46 52 47 46 43 43 43 51 49 46 47 44 55 52 53 60 65 48 30 32 34 34 35 41 46 50 56 62 69 74 79 80 79 81 83
39 29 25 33 39 41 44 46 42 45 53 41 39 39 38 40 40 44 40 46 45 57 49 57 65 57 35 28 29 30 33 39 46 51 57 62 66 69 74 76 78 79 80 81
36 40 40 39 40 48 53 56 53 49 38 35 35 37 38 36 34 41 42 48 51 47 55 62 62 42 31 28 29 33 37 44 53 59 63 67 71 70 72 76 74 76 79 80
38 42 47 51 46 47 45 43 39 36 31 27 27 33 38 39 42 43 48 49 49 59 66 68 53 37 30 30 34 40 45 54 63 68 70 70 72 73 71 69 70 73 78 76
37 40 46 45 37 34 29 27 30 29 21 28 33 38 39 41 45 44 46 50 58 57 62 54 37 30 33 41 44 48 55 66 70 70 70 68 69 71 72 68 67 67 69 69
37 38 39 34 33 33 32 29 29 28 25 30 36 40 45 48 46 49 54 58 64 59 49 41 35 39 42 46 53 59 65 68 68 66 66 67 68 68 69 68 67 65 64 67
37 37 32 36 37 35 34 34 33 24 31 42 41 46 48 40 50 55 49 58 57 47 41 39 42 45 51 59 65 66 65 64 64 65 66 66 63 61 63 71 70 66 64 61
Wind_Direction
268 274 274 271 256 242 242 247 253 266 265 295 306 305 295 294 319 336 321 296 305 16 25 41 48 62 46 27 36 34 21 34 22 10 12 6 359 350 344 336 334 331 326 324
267 273 277 278 260 248 251 257 266 277 271 286 286 292 282 300 296 279 282 294 311 5 42 38 41 40 29 28 32 25 29 25 15 14 17 12 355 351 343 333 331 324 327 331
266 274 280 281 267 259 259 257 263 275 284 288 287 284 271 275 287 294 314 347 16 43 33 24 54 42 35 31 28 24 26 18 15 6 3 -0 348 342 338 334 330 329 313 322
266 274 280 284 275 266 261 266 266 268 266 273 280 275 277 300 298 307 329 355 20 41 30 28 30 26 26 23 27 20 13 5 7 3 358 355 347 338 332 320 313 319 325 326
267 273 278 284 280 271 267 262 268 269 273 274 278 276 284 307 316 330 342 26 26 19 20 11 32 22 21 11 16 9 4 354 354 352 355 353 345 334 328 330 329 317 320 323
265 271 276 281 281 271 266 269 272 265 264 265 273 283 296 312 350 325 340 52 25 14 13 8 3 4 5 8 5 0 356 354 350 344 345 345 347 356 355 348 342 335 330 332
263 270 277 280 280 272 267 261 260 267 261 267 278 295 296 342 315 348 4 354 356 356 27 16 6 360 360 8 4 6 356 351 347 340 343 343 356 349 341 338 343 342 337 336
261 268 275 280 282 271 262 258 260 268 264 269 283 291 306 315 320 337 344 327 347 32 9 352 348 352 350 358 2 2 360 352 344 341 338 337 346 354 355 348 340 345 347 345
258 265 273 278 277 272 270 265 265 269 271 265 275 280 286 297 309 319 321 339 347 354 350 350 344 344 346 347 352 2 357 353 343 341 336 336 346 352 356 358 339 1 343 337
256 262 269 275 279 277 270 269 273 271 272 271 272 276 280 294 300 314 321 335 335 337 343 339 339 338 343 337 338 343 345 343 337 337 335 337 343 357 3 339 336 340 336 334
254 261 267 273 277 277 273 273 282 276 275 275 282 288 289 294 299 306 322 326 322 328 330 334 335 335 337 336 340 342 340 337 336 341 338 338 2 352 339 337 334 333 336 339
252 259 265 272 279 278 276 273 283 289 285 282 288 294 299 301 304 305 306 314 326 329 330 331 337 332 333 332 329 341 334 337 336 335 334 335 337 332 334 336 335 337 338 342
251 257 262 269 278 284 281 277 280 287 285 289 288 291 298 304 307 310 305 305 314 316 324 326 327 324 330 326 327 328 330 327 327 328 335 330 333 331 337 339 337 342 343 342
250 254 261 268 275 282 281 278 284 290 293 284 287 299 297 301 303 306 309 314 318 320 318 315 318 320 326 323 324 323 326 325 323 321 325 329 334 339 337 340 343 344 343 342
250 253 259 266 274 282 289 286 288 290 284 288 294 295 301 305 306 305 309 310 308 309 309 310 311 318 320 321 322 320 321 317 320 324 332 331 332 339 344 343 344 343 341 340
248 252 258 264 270 277 281 277 284 290 293 289 286 298 297 300 304 305 309 308 309 308 309 309 313 318 318 317 318 326 327 328 325 324 331 335 339 343 346 344 343 342 339 338
246 251 256 261 268 274 274 280 291 290 295 291 291 293 298 300 303 304 304 307 306 306 307 305 307 311 315 313 312 323 329 330 331 336 341 337 339 338 342 341 339 339 338 338
243 249 255 261 268 275 273 286 296 295 298 295 290 293 296 305 304 303 310 306 307 307 306 312 312 318 318 314 318 324 331 336 338 339 341 341 343 341 339 340 339 337 336 336
237 244 249 266 267 267 272 282 287 293 289 289 287 284 290 301 301 307 310 312 306 312 305 307 313 310 311 321 323 325 328 329 335 343 344 343 340 339 339 338 336 335 335 335
213 244 254 261 267 274 275 282 277 283 284 284 285 287 285 295 299 303 309 311 306 305 308 316 308 306 317 324 329 336 340 342 342 336 336 338 337 337 337 336 335 335 334 335
239 245 257 263 268 274 274 271 273 278 283 283 283 280 284 295 293 296 303 305 309 306 308 307 310 310 318 332 337 341 344 344 343 341 340 339 337 336 335 334 335 336 336 337
240 239 255 265 270 276 272 268 275 277 278 283 285 287 293 299 306 299 300 301 306 304 315 310 311 320 327 331 335 339 340 341 341 339 337 336 335 334 334 335 335 336 336 337
253 256 257 260 267 265 263 265 274 275 281 283 287 291 296 304 311 305 303 300 302 314 309 309 315 325 326 332 336 337 339 338 336 334 334 332 333 334 335 335 336 337 338 339
258 255 251 257 265 267 272 274 276 283 284 287 293 296 300 305 303 304 301 305 307 305 305 308 317 320 325 331 333 331 330 331 331 330 331 331 332 333 335 336 337 338 339 342
264 264 260 262 269 274 276 283 285 292 291 293 295 299 300 302 301 304 304 305 304 307 310 316 324 327 327 326 327 326 325 327 328 330 330 331 333 333 334 337 338 339 341 343
272 271 268 267 269 274 278 283 285 292 290 300 302 299 298 297 300 299 297 301 302 310 316 323 326 324 325 325 325 325 325 326 327 329 331 332 333 334 335 337 338 340 342 343
275 272 275 275 279 276 281 286 289 292 289 290 298 295 296 307 300 298 301 301 309 315 319 324 324 322 322 323 323 324 325 327 329 330 331 332 334 336 337 336 339 341 342 342